Centralia, IL

8:55 PM CST on February 24, 2017 (GMT -0600)
Centralia Municipal

Weather History for KENL - October, 2012

Change the Weather History Date:

Thursday, October 18, 2012

  Actual Average (KSLO) Record (KSLO)
Temperature  
Mean Temperature 56 °F -  
Max Temperature 62 °F 65 °F 84 °F (2016)
Min Temperature 49 °F 42 °F 29 °F (1959)
Degree Days  
Heating Degree Days 10    
Growing Degree Days 6 (Base 50)    
Moisture  
Dew Point 40 °F    
Average Humidity 58    
Maximum Humidity 89    
Minimum Humidity 32    
Precipitation  
Precipitation 0.00 in - - ()
Sea Level Pressure  
Sea Level Pressure 29.61 in    
Wind  
Wind Speed 12 mph (SW)    
Max Wind Speed 24 mph    
Max Gust Speed 32 mph    
Visibility 10 miles    
Events      
Averages and records for this station are not official NWS values.
T = Trace of Precipitation, MM = Missing Value Source: NWS Daily Summary

Daily Weather History Graph

Daily Weather History Graph

Search for Another Location

Airport or City:

Trip Planner

Search our weather history database for the weather conditions in past years. The results will help you decide how hot, cold, wet, or windy it might be!

Date:

Astronomy

Oct. 18, 2012 Rise Set
Actual Time 7:08 AM CDT 6:13 PM CDT
Civil Twilight 6:42 AM CDT 6:40 PM CDT
Nautical Twilight 6:11 AM CDT 7:10 PM CDT
Astronomical Twilight 5:40 AM CDT 7:41 PM CDT
Moon 10:48 AM CDT (10/18) 8:50 PM CDT (10/18)
Length of Visible Light 11h 58m
Length of Day
11h 04m
Waxing Crescent, 14% of the Moon is Illuminated
Oct 18
Waxing Crescent
Oct 21
First Quarter
Oct 29
Full
Nov 6
Last Quarter
Nov 13
New

Hourly Weather History & Observations

Time (CDT) Temp. Dew Point Humidity Pressure Visibility Wind Dir Wind Speed Gust Speed Precip Events Conditions
12:15 AM 55.2 °F 50.9 °F 85% 29.57 in 10.0 mi West 6.9 mph - N/A   Clear
12:35 AM 54.5 °F 50.4 °F 86% 29.57 in 10.0 mi West 8.1 mph - N/A   Clear
12:55 AM 54.5 °F 50.0 °F 85% 29.57 in 10.0 mi WSW 10.4 mph - N/A   Clear
1:15 AM 54.1 °F 49.6 °F 85% 29.57 in 10.0 mi WSW 8.1 mph - N/A   Clear
1:35 AM 53.6 °F 49.6 °F 86% 29.58 in 10.0 mi WSW 10.4 mph - N/A   Clear
1:55 AM 53.4 °F 49.5 °F 86% 29.58 in 10.0 mi WSW 9.2 mph - N/A   Clear
2:15 AM 52.9 °F 49.3 °F 88% 29.59 in 10.0 mi WSW 9.2 mph - N/A   Clear
2:35 AM 52.7 °F 49.5 °F 89% 29.59 in 10.0 mi WSW 11.5 mph - N/A   Clear
2:55 AM 52.5 °F 49.1 °F 88% 29.59 in 10.0 mi WSW 10.4 mph - N/A   Clear
3:15 AM 52.3 °F 48.6 °F 87% 29.59 in 10.0 mi SW 11.5 mph - N/A   Clear
3:35 AM 52.2 °F 47.1 °F 83% 29.60 in 10.0 mi WSW 16.1 mph 24.2 mph N/A   Clear
3:55 AM 51.8 °F 46.6 °F 82% 29.60 in 10.0 mi WSW 11.5 mph - N/A   Clear
4:15 AM 51.3 °F 45.5 °F 81% 29.60 in 10.0 mi WSW 10.4 mph 16.1 mph N/A   Clear
4:35 AM 50.9 °F 45.1 °F 81% 29.61 in 10.0 mi SW 9.2 mph - N/A   Clear
4:55 AM 50.2 °F 45.0 °F 82% 29.61 in 10.0 mi SW 9.2 mph - N/A   Clear
5:15 AM 50.0 °F 44.6 °F 82% 29.61 in 10.0 mi SSW 9.2 mph - N/A   Clear
5:35 AM 50.0 °F 44.6 °F 82% 29.61 in 10.0 mi SW 11.5 mph - N/A   Clear
5:55 AM 50.0 °F 43.9 °F 79% 29.61 in 10.0 mi SW 9.2 mph - N/A   Clear
6:15 AM 50.0 °F 44.6 °F 82% 29.61 in 10.0 mi SW 9.2 mph - N/A   Clear
6:35 AM 50.2 °F 43.0 °F 76% 29.61 in 10.0 mi SW 10.4 mph - N/A   Clear
6:55 AM 49.8 °F 43.0 °F 77% 29.61 in 10.0 mi SSW 10.4 mph - N/A   Clear
7:15 AM 50.0 °F 42.8 °F 76% 29.62 in 10.0 mi SSW 12.7 mph - N/A   Clear
7:35 AM 50.0 °F 42.8 °F 76% 29.62 in 10.0 mi SSW 11.5 mph 18.4 mph N/A   Clear
7:55 AM 50.4 °F 42.3 °F 74% 29.62 in 10.0 mi SW 13.8 mph - N/A   Clear
8:15 AM 50.9 °F 42.3 °F 72% 29.62 in 10.0 mi SW 12.7 mph - N/A   Clear
8:35 AM 51.8 °F 41.9 °F 69% 29.63 in 10.0 mi SW 15.0 mph - N/A   Clear
8:55 AM 52.7 °F 41.2 °F 65% 29.64 in 10.0 mi SW 12.7 mph 20.7 mph N/A   Clear
9:15 AM 54.0 °F 40.3 °F 60% 29.64 in 10.0 mi SW 15.0 mph 23.0 mph N/A   Clear
9:35 AM 54.5 °F 39.6 °F 57% 29.64 in 10.0 mi WSW 17.3 mph 23.0 mph N/A   Clear
9:55 AM 55.2 °F 39.4 °F 55% 29.65 in 10.0 mi SW 17.3 mph 24.2 mph N/A   Clear
10:15 AM 55.6 °F 38.5 °F 53% 29.64 in 10.0 mi SW 17.3 mph 23.0 mph N/A   Clear
10:35 AM 56.5 °F 38.8 °F 52% 29.64 in 10.0 mi SW 18.4 mph 25.3 mph N/A   Clear
10:55 AM 57.2 °F 37.8 °F 48% 29.64 in 10.0 mi SW 18.4 mph 24.2 mph N/A   Clear
11:15 AM 58.1 °F 37.2 °F 46% 29.63 in 10.0 mi SW 19.6 mph 24.2 mph N/A   Clear
11:35 AM 59.2 °F 36.1 °F 42% 29.63 in 10.0 mi SW 18.4 mph 25.3 mph N/A   Clear
11:55 AM 59.9 °F 34.0 °F 38% 29.63 in 10.0 mi WSW 20.7 mph 25.3 mph N/A   Clear
12:15 PM 59.9 °F 32.5 °F 36% 29.63 in 10.0 mi SW 19.6 mph 29.9 mph N/A   Clear
12:35 PM 60.1 °F 32.5 °F 35% 29.62 in 10.0 mi SW 23.0 mph 31.1 mph N/A   Clear
12:55 PM 60.6 °F 32.2 °F 34% 29.62 in 10.0 mi SW 23.0 mph 31.1 mph N/A   Clear
1:15 PM 60.8 °F 31.5 °F 33% 29.62 in 10.0 mi WSW 21.9 mph - N/A   Clear
1:35 PM 61.0 °F 31.6 °F 33% 29.61 in 10.0 mi WSW 24.2 mph 31.1 mph N/A   Clear
1:55 PM 61.3 °F 32.4 °F 34% 29.60 in 10.0 mi WSW 23.0 mph 32.2 mph N/A   Clear
2:15 PM 61.7 °F 32.2 °F 33% 29.60 in 10.0 mi WSW 21.9 mph 31.1 mph N/A   Clear
2:35 PM 61.9 °F 32.0 °F 33% 29.59 in 10.0 mi WSW 21.9 mph 27.6 mph N/A   Clear
2:55 PM 61.3 °F 31.5 °F 32% 29.60 in 10.0 mi WSW 24.2 mph 31.1 mph N/A   Clear
3:15 PM 62.4 °F 33.1 °F 33% 29.60 in 10.0 mi SW 19.6 mph 26.5 mph N/A   Clear
3:35 PM 61.5 °F 32.5 °F 34% 29.60 in 10.0 mi SW 18.4 mph 25.3 mph N/A   Clear
3:55 PM 61.9 °F 33.4 °F 34% 29.60 in 10.0 mi SW 17.3 mph 25.3 mph N/A   Clear
4:15 PM 61.2 °F 32.2 °F 34% 29.60 in 10.0 mi SSW 20.7 mph 27.6 mph N/A   Clear
4:35 PM 61.2 °F 32.4 °F 34% 29.60 in 10.0 mi SW 21.9 mph 26.5 mph N/A   Clear
4:55 PM 61.2 °F 34.0 °F 36% 29.60 in 10.0 mi SW 12.7 mph - N/A   Clear
5:15 PM 60.1 °F 33.8 °F 37% 29.61 in 10.0 mi SW 13.8 mph 21.9 mph N/A   Scattered Clouds
5:35 PM 59.5 °F 34.9 °F 40% 29.61 in 10.0 mi SW 12.7 mph 18.4 mph N/A   Mostly Cloudy
5:55 PM 59.2 °F 35.1 °F 40% 29.62 in 10.0 mi SW 11.5 mph - N/A   Mostly Cloudy
6:15 PM 57.7 °F 36.7 °F 45% 29.62 in 10.0 mi SSW 9.2 mph - N/A   Mostly Cloudy
6:35 PM 57.7 °F 36.9 °F 46% 29.62 in 10.0 mi SSW 9.2 mph - N/A   Overcast
6:55 PM 57.6 °F 37.2 °F 47% 29.63 in 10.0 mi SW 8.1 mph - N/A   Overcast
7:15 PM 58.3 °F 36.1 °F 44% 29.64 in 10.0 mi WSW 9.2 mph 17.3 mph N/A   Overcast
7:35 PM 58.6 °F 35.6 °F 42% 29.64 in 10.0 mi West 8.1 mph - N/A   Overcast
7:55 PM 57.4 °F 37.6 °F 48% 29.64 in 10.0 mi WSW 8.1 mph - N/A   Light Drizzle
8:15 PM 57.6 °F 37.2 °F 47% 29.62 in 10.0 mi WSW 6.9 mph - N/A   Overcast
8:35 PM 56.8 °F 38.1 °F 50% 29.61 in 10.0 mi SSW 6.9 mph - N/A   Overcast
8:55 PM 56.7 °F 37.8 °F 49% 29.60 in 10.0 mi SSW 8.1 mph - N/A   Overcast
9:35 PM 56.1 °F 38.1 °F 51% 29.59 in 10.0 mi SSW 10.4 mph - N/A   Overcast
9:55 PM 55.8 °F 38.3 °F 52% 29.59 in 10.0 mi SSW 9.2 mph - N/A   Overcast
10:15 PM 56.3 °F 37.2 °F 49% 29.58 in 10.0 mi SSW 11.5 mph 16.1 mph N/A   Overcast
10:35 PM 55.8 °F 38.1 °F 52% 29.58 in 10.0 mi SW 8.1 mph - N/A   Overcast
10:55 PM 55.6 °F 38.1 °F 52% 29.58 in 10.0 mi SW 9.2 mph - N/A   Overcast